Location: Munkebjergskolens Observatorium
(55.3864°N, 10.3987°E)
Time: 05:34:40
(UTC+02:00)

CAS-6 - Pass Details

Date: 30 March 2023
Orbit: 610 x 632 km, 97.9° (Epoch: 31 May)

Event Time Altitude Azimuth Distance (km) Brightness Sun altitude
Exits shadow 23:01:33 63° 55° (NE) 697 ? -24.0°
Drops below altitude 10° 23:05:42 10° 350° (N) 2,012 ? -24.3°
Sets 23:07:55 0° 347° (NNW) 2,928 ? -24.5°
